Weather History for Buckland, AK

Change the Weather History Date:

Thursday, October 13, 2011

  Actual Average (PASK) Record (PASK)
Temperature  
Mean Temperature 36 °F -  
Max Temperature 39 °F 25 °F 39 °F (2013)
Min Temperature 33 °F 17 °F 3 °F (1996)
Degree Days  
Heating Degree Days 29    
Moisture  
Dew Point 32 °F    
Average Humidity 84    
Maximum Humidity 87    
Minimum Humidity 75    
Precipitation  
Precipitation 0.00 in - - ()
Sea Level Pressure  
Sea Level Pressure 29.49 in    
Wind  
Wind Speed 19 mph (ESE)    
Max Wind Speed 23 mph    
Max Gust Speed 33 mph    
Visibility 10 miles    
Events      
Averages and records for this station are not official NWS values.
T = Trace of Precipitation, MM = Missing Value Source: NWS Daily Summary

Daily Weather History Graph

Daily Weather History Graph

Search for Another Location

Airport:

Trip Planner

Search our weather history database for the weather conditions in past years. The results will help you decide how hot, cold, wet, or windy it might be!

Date:

Astronomy

Oct. 13, 2011 Rise Set
Actual Time 9:34 AM AKDT 7:26 PM AKDT
Civil Twilight 8:42 AM AKDT 8:17 PM AKDT
Nautical Twilight 7:42 AM AKDT 9:16 PM AKDT
Astronomical Twilight 6:41 AM AKDT 10:17 PM AKDT
Moon 6:42 PM AKDT (10/13) 12:38 PM AKDT (10/13)
Length of Visible Light 11h 35m
Length of Day
9h 51m
Full, 97% of the Moon is Illuminated
Oct 13
Full
Oct 19
Last Quarter
Oct 26
New
Nov 2
First Quarter
Nov 10
Full

Hourly Weather History & Observations

Time (AKDT) Temp. Windchill Dew Point Humidity Pressure Visibility Wind Dir Wind Speed Gust Speed Precip Events Conditions
12:16 AM 33.8 °F 22.5 °F 28.4 °F 81% 29.55 in 10.0 mi East 19.6 mph 27.6 mph N/A   Overcast
12:36 AM 33.8 °F 22.5 °F 28.4 °F 81% 29.55 in 5.0 mi ESE 19.6 mph 24.2 mph N/A   Overcast
12:56 AM 33.8 °F 22.2 °F 28.4 °F 81% 29.54 in 10.0 mi ESE 20.7 mph 27.6 mph N/A   Overcast
1:16 AM 33.8 °F 22.8 °F 30.2 °F 87% 29.55 in 10.0 mi ESE 18.4 mph 26.5 mph N/A   Overcast
1:36 AM 33.8 °F 22.5 °F 30.2 °F 87% 29.54 in 10.0 mi ESE 19.6 mph 26.5 mph N/A   Overcast
1:56 AM 33.8 °F 22.5 °F 30.2 °F 87% 29.54 in 10.0 mi East 19.6 mph 24.2 mph N/A   Overcast
2:16 AM 33.8 °F 22.2 °F 28.4 °F 81% 29.53 in 10.0 mi East 20.7 mph 28.8 mph N/A   Overcast
2:36 AM 33.8 °F 22.2 °F 30.2 °F 87% 29.53 in 10.0 mi ESE 20.7 mph 29.9 mph N/A   Overcast
2:56 AM 33.8 °F 23.2 °F 30.2 °F 87% 29.54 in 10.0 mi ESE 17.3 mph 24.2 mph N/A   Overcast
3:16 AM 33.8 °F 23.2 °F 30.2 °F 87% 29.53 in 10.0 mi East 17.3 mph 25.3 mph N/A   Overcast
3:36 AM 33.8 °F 22.8 °F 30.2 °F 87% 29.52 in 10.0 mi East 18.4 mph 23.0 mph N/A   Overcast
3:56 AM 33.8 °F 23.5 °F 30.2 °F 87% 29.52 in 10.0 mi East 16.1 mph - N/A   Overcast
4:16 AM 35.6 °F 25.2 °F 30.2 °F 81% 29.52 in 10.0 mi ESE 18.4 mph 23.0 mph N/A   Mostly Cloudy
4:36 AM 35.6 °F 24.5 °F 32.0 °F 87% 29.51 in 10.0 mi ESE 20.7 mph - N/A   Overcast
4:56 AM 35.6 °F 24.5 °F 32.0 °F 87% 29.51 in 10.0 mi ESE 20.7 mph 28.8 mph N/A   Mostly Cloudy
5:16 AM 35.6 °F 24.5 °F 32.0 °F 87% 29.51 in 10.0 mi ESE 20.7 mph 26.5 mph N/A   Overcast
5:36 AM 37.4 °F 27.2 °F 30.2 °F 75% 29.50 in 10.0 mi ESE 19.6 mph 28.8 mph N/A   Overcast
5:56 AM 37.4 °F 26.9 °F 30.2 °F 75% 29.50 in 10.0 mi ESE 20.7 mph 25.3 mph N/A   Overcast
6:16 AM 35.6 °F 24.8 °F 30.2 °F 81% 29.50 in 10.0 mi ESE 19.6 mph 26.5 mph N/A   Overcast
6:36 AM 35.6 °F 25.9 °F 30.2 °F 81% 29.50 in 10.0 mi ESE 16.1 mph 24.2 mph N/A   Overcast
6:56 AM 35.6 °F 24.8 °F 30.2 °F 81% 29.49 in 10.0 mi ESE 19.6 mph 26.5 mph N/A   Overcast
7:16 AM 35.6 °F 24.8 °F 32.0 °F 87% 29.49 in 10.0 mi ESE 19.6 mph 26.5 mph N/A   Mostly Cloudy
7:36 AM 35.6 °F 25.5 °F 32.0 °F 87% 29.49 in 10.0 mi ESE 17.3 mph 21.9 mph N/A   Overcast
7:56 AM 35.6 °F 26.2 °F 32.0 °F 87% 29.49 in 10.0 mi ESE 15.0 mph 21.9 mph N/A   Overcast
8:16 AM 35.6 °F 25.5 °F 32.0 °F 87% 29.49 in 10.0 mi ESE 17.3 mph 23.0 mph N/A   Overcast
8:36 AM 37.4 °F 27.5 °F 32.0 °F 81% 29.48 in 10.0 mi ESE 18.4 mph 27.6 mph N/A   Overcast
8:56 AM 35.6 °F 25.2 °F 32.0 °F 87% 29.48 in 10.0 mi ESE 18.4 mph 24.2 mph N/A   Overcast
9:16 AM 37.4 °F 27.5 °F 33.8 °F 87% 29.48 in 10.0 mi ESE 18.4 mph 26.5 mph N/A   Overcast
9:36 AM 37.4 °F 26.4 °F 33.8 °F 87% 29.47 in 10.0 mi ESE 23.0 mph 31.1 mph N/A   Overcast
9:56 AM 37.4 °F 27.2 °F 33.8 °F 87% 29.48 in 10.0 mi ESE 19.6 mph 26.5 mph N/A   Mostly Cloudy
10:16 AM 37.4 °F 27.5 °F 33.8 °F 87% 29.48 in 10.0 mi ESE 18.4 mph 24.2 mph N/A   Mostly Cloudy
10:36 AM 37.4 °F 27.5 °F 33.8 °F 87% 29.48 in 10.0 mi ESE 18.4 mph 26.5 mph N/A   Scattered Clouds
10:56 AM 37.4 °F 27.8 °F 33.8 °F 87% 29.49 in 10.0 mi SE 17.3 mph 24.2 mph N/A   Mostly Cloudy
11:16 AM 37.4 °F 26.9 °F 33.8 °F 87% 29.49 in 10.0 mi SE 20.7 mph 25.3 mph N/A   Overcast
11:36 AM 37.4 °F 26.9 °F 33.8 °F 87% 29.49 in 10.0 mi ESE 20.7 mph 29.9 mph N/A   Overcast
11:56 AM 37.4 °F 27.2 °F 33.8 °F 87% 29.49 in 10.0 mi SE 19.6 mph 29.9 mph N/A   Overcast
12:16 PM 37.4 °F 26.6 °F 33.8 °F 87% 29.49 in 10.0 mi SE 21.9 mph 32.2 mph N/A   Overcast
12:36 PM 37.4 °F 26.4 °F 33.8 °F 87% 29.49 in 10.0 mi SE 23.0 mph 33.4 mph N/A   Overcast
1:16 PM 37.4 °F 27.5 °F 33.8 °F 87% 29.49 in 10.0 mi SE 18.4 mph 31.1 mph N/A   Overcast
1:36 PM 37.4 °F 27.8 °F 33.8 °F 87% 29.49 in 10.0 mi SE 17.3 mph 24.2 mph N/A   Overcast
1:56 PM 39.2 °F 29.0 °F 33.8 °F 81% 29.48 in 10.0 mi SE 21.9 mph 28.8 mph N/A   Overcast
2:16 PM 39.2 °F 29.6 °F 33.8 °F 81% 29.48 in 10.0 mi SE 19.6 mph - N/A   Overcast
2:36 PM 39.2 °F 29.0 °F 33.8 °F 81% 29.48 in 10.0 mi SE 21.9 mph 28.8 mph N/A   Overcast
2:56 PM 39.2 °F 29.6 °F 33.8 °F 81% 29.48 in 10.0 mi SE 19.6 mph 32.2 mph N/A   Overcast
3:16 PM 39.2 °F 29.3 °F 33.8 °F 81% 29.47 in 10.0 mi ESE 20.7 mph 27.6 mph N/A   Overcast
3:36 PM 39.2 °F 29.3 °F 33.8 °F 81% 29.48 in 10.0 mi ESE 20.7 mph 31.1 mph N/A   Overcast
3:56 PM 39.2 °F 29.8 °F 33.8 °F 81% 29.48 in 10.0 mi ESE 18.4 mph 25.3 mph N/A   Overcast
4:16 PM 39.2 °F 30.5 °F 33.8 °F 81% 29.49 in 10.0 mi SE 16.1 mph 21.9 mph N/A   Overcast
4:36 PM 39.2 °F 29.8 °F 35.6 °F 87% 29.48 in 10.0 mi SE 18.4 mph 24.2 mph N/A   Overcast
4:56 PM 39.2 °F 29.8 °F 35.6 °F 87% 29.48 in 10.0 mi SE 18.4 mph 24.2 mph N/A   Overcast
5:16 PM 39.2 °F 29.0 °F 35.6 °F 87% 29.48 in 10.0 mi ESE 21.9 mph 25.3 mph N/A   Overcast
5:36 PM 39.2 °F 29.6 °F 33.8 °F 81% 29.48 in 10.0 mi ESE 19.6 mph 28.8 mph N/A   Mostly Cloudy
5:56 PM 39.2 °F 29.8 °F 33.8 °F 81% 29.49 in 10.0 mi SE 18.4 mph 21.9 mph N/A   Overcast
6:16 PM 39.2 °F 29.6 °F 33.8 °F 81% 29.48 in 10.0 mi SE 19.6 mph 25.3 mph N/A   Overcast
6:36 PM 39.2 °F 29.8 °F 33.8 °F 81% 29.48 in 10.0 mi SE 18.4 mph 27.6 mph N/A   Overcast
6:56 PM 37.4 °F 27.5 °F 33.8 °F 87% 29.48 in 10.0 mi ESE 18.4 mph 25.3 mph N/A   Mostly Cloudy
7:16 PM 37.4 °F 27.8 °F 33.8 °F 87% 29.48 in 10.0 mi SE 17.3 mph 20.7 mph N/A   Mostly Cloudy
7:36 PM 37.4 °F 27.8 °F 33.8 °F 87% 29.47 in 10.0 mi SE 17.3 mph 24.2 mph N/A   Mostly Cloudy
7:56 PM 37.4 °F 29.3 °F 33.8 °F 87% 29.48 in 10.0 mi SE 12.7 mph - N/A   Overcast
8:16 PM 37.4 °F 30.8 °F 33.8 °F 87% 29.47 in 10.0 mi ESE 9.2 mph - N/A   Overcast
8:36 PM 37.4 °F 28.2 °F 33.8 °F 87% 29.47 in 10.0 mi SE 16.1 mph - N/A   Overcast
8:56 PM 37.4 °F 29.8 °F 33.8 °F 87% 29.47 in 10.0 mi SE 11.5 mph - N/A   Overcast
9:16 PM 37.4 °F 28.9 °F 32.0 °F 81% 29.46 in 10.0 mi ESE 13.8 mph - N/A   Overcast
9:36 PM 37.4 °F 30.3 °F 30.2 °F 75% 29.47 in 10.0 mi ESE 10.4 mph - N/A   Overcast
9:56 PM 37.4 °F 30.8 °F 30.2 °F 75% 29.46 in 10.0 mi ESE 9.2 mph - N/A   Overcast
10:16 PM 37.4 °F 30.3 °F 30.2 °F 75% 29.46 in 10.0 mi ESE 10.4 mph - N/A   Overcast
10:36 PM 37.4 °F 29.3 °F 30.2 °F 75% 29.46 in 10.0 mi ESE 12.7 mph - N/A   Overcast
10:56 PM 37.4 °F 30.8 °F 30.2 °F 75% 29.46 in 10.0 mi ESE 9.2 mph - N/A   Mostly Cloudy
11:16 PM 35.6 °F 29.9 °F 30.2 °F 81% 29.45 in 10.0 mi ESE 6.9 mph 16.1 mph N/A   Overcast
11:36 PM 35.6 °F 28.0 °F 30.2 °F 81% 29.45 in 10.0 mi ESE 10.4 mph - N/A   Mostly Cloudy
11:56 PM 37.4 °F 28.5 °F 30.2 °F 75% 29.45 in 10.0 mi East 15.0 mph - N/A   Overcast